Home   Weather   Tau   Past weeks

Flag for Norway Past Weather in Tau, Norway — Yesterday and Last 2 Weeks

Now
61 °F

Broken clouds.


Feels Like: 61 °F
Forecast: 54 / 62 °F
Wind: 10 mph from West

Location: Stavanger / Sola

Current Time: Aug 30, 2016 at 3:17:19 PM

Latest Report: Aug 30, 2016 at 2:20 PM


Visibility: 6 mi

Pressure: 30.09 "Hg

Humidity: 88%

Dew Point: 57 °F

Location of TauLocation

Past Weather in Tau — Graph

°F

Tau Temperature Yesterday

Maximum temperature yesterday: 63 °F (at 12:50 PM)
Minimum temperature yesterday: 55 °F (at 3:50 AM)
Average temperature yesterday: 59 °F

High & Low Weather Summary for the Past Weeks

 TemperatureHumidityPressure
High70 °F (Aug 21, 12:20 PM)100% (Aug 16, 4:50 AM)30.24 "Hg (Aug 16, 4:50 AM)
Low48 °F (Aug 16, 5:50 AM)56% (Aug 20, 2:20 PM)29.65 "Hg (Aug 26, 10:20 AM)
Average61 °F84%30.00 "Hg
* Reported Aug 15 1:20 PM — Aug 30 1:50 PM, Tau, Weather by CustomWeather, © 2016

Note: Actual official high and low records may vary slightly from our data, if they occured in-between our weather recording intervals... More about our weather records

Advertising

Tau Weather History for the Previous 24 Hours

Scroll right to see more
 ConditionsComfort  
Time TempWeatherWind HumidityBarometerVisibility
1:50 PM
Tue, Aug 30
61 °FBroken clouds.12 mph88%30.09 "HgN/A
1:20 PM61 °FDrizzle. Broken clouds.10 mph94%30.09 "Hg4 mi
12:50 PM61 °FDrizzle. Fog.12 mph94%30.07 "Hg4 mi
12:20 PM61 °FDrizzle. Broken clouds.12 mph94%30.07 "Hg4 mi
11:50 AM61 °FDrizzle. Fog.13 mph94%30.07 "Hg3 mi
11:20 AM59 °FDrizzle. Fog.12 mph100%30.04 "Hg4 mi
10:50 AM59 °FDrizzle. Fog.10 mph100%30.04 "Hg3 mi
10:20 AM61 °FDrizzle. Fog.10 mph88%30.04 "Hg3 mi
9:50 AM59 °FDrizzle. Broken clouds.9 mph94%30.04 "Hg3 mi
9:20 AM61 °FDrizzle. Partly sunny.9 mph88%30.01 "Hg5 mi
8:50 AM59 °FPartly sunny.9 mph94%30.01 "HgN/A
8:20 AM57 °FDrizzle. Partly sunny.8 mph94%30.01 "HgN/A
7:50 AM57 °FBroken clouds.9 mph88%30.01 "HgN/A
7:20 AM55 °FPartly cloudy.9 mph94%30.01 "Hg6 mi
6:50 AM55 °FPartly cloudy.7 mph88%30.01 "HgN/A
6:20 AM55 °FPassing clouds.7 mph88%30.01 "HgN/A
5:50 AM55 °FPartly cloudy.8 mph82%30.04 "HgN/A
4:50 AM54 °FPartly cloudy.7 mph88%30.04 "HgN/A
3:50 AM54 °FPassing clouds.5 mph82%30.04 "HgN/A
2:50 AM54 °FPartly cloudy.3 mph82%30.04 "HgN/A
1:50 AM57 °FPassing clouds.3 mph77%30.04 "HgN/A
12:50 AM57 °FPartly cloudy.7 mph72%30.04 "HgN/A
12:20 AM57 °FPartly cloudy.7 mph77%30.04 "HgN/A
11:50 PM
Mon, Aug 29
57 °FPartly cloudy.9 mph77%30.04 "HgN/A
11:20 PM57 °FPartly cloudy.10 mph77%30.04 "HgN/A
10:50 PM57 °FPassing clouds.6 mph82%30.04 "HgN/A
10:20 PM59 °FPartly cloudy.3 mph77%30.04 "HgN/A
9:50 PM57 °FPartly cloudy.2 mph82%30.04 "HgN/A
9:20 PM57 °FScattered clouds.2 mph77%30.04 "HgN/A
8:50 PM57 °FScattered clouds.3 mph77%30.01 "HgN/A
8:20 PM57 °FScattered clouds.7 mph77%30.01 "HgN/A
7:50 PM59 °FPassing clouds.8 mph72%30.01 "HgN/A
7:20 PM61 °FPassing clouds.12 mph68%30.01 "HgN/A
6:50 PM61 °FPassing clouds.12 mph68%30.01 "HgN/A
6:20 PM61 °FPassing clouds.13 mph68%30.01 "HgN/A
5:50 PM61 °FPassing clouds.14 mph68%30.01 "HgN/A
5:20 PM61 °FPassing clouds.16 mph72%30.01 "HgN/A
4:50 PM61 °FPassing clouds.17 mph72%29.98 "HgN/A
4:20 PM61 °FPassing clouds.18 mph72%29.98 "HgN/A
3:50 PM61 °FPassing clouds.20 mph72%29.98 "HgN/A
3:20 PM61 °FScattered clouds.20 mph72%29.98 "HgN/A
Weather by CustomWeather, © 2016

See weather overviewHow to use our weather pages